^^
Mint Hill Weather Station Historical Data
 
Daily Summary for April 17, 2014 Units:  English    Metric   Both
« Previous Day
Next Day »
Daily Weekly Monthly Yearly Custom
  Current: High: Low: Average:
Temperature: 57.2 °F 57.2 °F 34.6 °F 40.3 °F
Dew Point: 34.3 °F 35.2 °F 30.8 °F 32.7 °F
Humidity: 42% 88% 42% 76%
Wind Speed: 3.0mph 3.0mph 0.0mph 0.6mph
Wind Gust: 8.0mph 12.0mph - -
WindENE - - ENE
Pressure: 30.49 in 30.52 in 30.41 in -
Precipitation: 0.00 in      
Historical Graphs
 
 
Tabular Data for April 17, 2014
Time Temperature Dew Point Pressure Wind Wind Speed Wind Gust Humidity Rainfall Rate (Hourly) solar Conditions
00:04 40.1 °F 34.1 °F 30.41 in Calm     79% 0.00 in 0.0 W/m2 CLR
00:09 40.0 °F 34.3 °F 30.41 in Calm     80% 0.00 in 0.0 W/m2 CLR
00:14 39.8 °F 34.5 °F 30.41 in Calm     81% 0.00 in 0.0 W/m2 CLR
00:19 39.7 °F 34.0 °F 30.41 in Calm     80% 0.00 in 0.0 W/m2 CLR
00:29 39.5 °F 33.8 °F 30.41 in Calm     80% 0.00 in 0.0 W/m2 CLR
00:34 39.3 °F 33.7 °F 30.41 in Calm     80% 0.00 in 0.0 W/m2 CLR
00:39 39.2 °F 33.5 °F 30.41 in Calm     80% 0.00 in 0.0 W/m2 CLR
00:49 39.0 °F 33.7 °F 30.41 in Calm     81% 0.00 in 0.0 W/m2 CLR
00:59 38.7 °F 33.4 °F 30.41 in Calm     81% 0.00 in 0.0 W/m2 CLR
01:04 38.6 °F 33.3 °F 30.41 in Calm     81% 0.00 in 0.0 W/m2 CLR
01:09 38.5 °F 33.5 °F 30.41 in Calm     82% 0.00 in 0.0 W/m2 CLR
01:19 38.3 °F 33.3 °F 30.41 in Calm     82% 0.00 in 0.0 W/m2 CLR
01:29 38.1 °F 33.4 °F 30.41 in Calm   1.0 mph 83% 0.00 in 0.0 W/m2 CLR
01:39 37.8 °F 32.8 °F 30.41 in Calm     82% 0.00 in 0.0 W/m2 CLR
01:49 37.7 °F 32.7 °F 30.41 in Calm     82% 0.00 in 0.0 W/m2 CLR
01:59 37.5 °F 32.8 °F 30.41 in Calm     83% 0.00 in 0.0 W/m2 CLR
02:04 37.4 °F 33.0 °F 30.41 in Calm     84% 0.00 in 0.0 W/m2 CLR
02:09 37.3 °F 32.9 °F 30.41 in Calm     84% 0.00 in 0.0 W/m2 CLR
02:19 37.2 °F 32.8 °F 30.42 in Calm     84% 0.00 in 0.0 W/m2 CLR
02:29 37.1 °F 32.7 °F 30.41 in Calm     84% 0.00 in 0.0 W/m2 CLR
02:39 36.9 °F 32.5 °F 30.42 in Calm     84% 0.00 in 0.0 W/m2 CLR
02:49 36.8 °F 32.7 °F 30.42 in Calm     85% 0.00 in 0.0 W/m2 CLR
02:59 36.6 °F 32.8 °F 30.43 in ESE 1.0 mph 3.0 mph 86% 0.00 in 0.0 W/m2 CLR
03:04 36.6 °F 32.8 °F 30.43 in Calm     86% 0.00 in 0.0 W/m2 CLR
03:09 36.5 °F 32.7 °F 30.43 in Calm   1.0 mph 86% 0.00 in 0.0 W/m2 CLR
03:19 36.4 °F 32.3 °F 30.43 in Calm     85% 0.00 in 0.0 W/m2 CLR
03:29 36.3 °F 31.9 °F 30.43 in Calm     84% 0.00 in 0.0 W/m2 CLR
03:39 36.2 °F 31.8 °F 30.43 in Calm     84% 0.00 in 0.0 W/m2 CLR
03:49 36.3 °F 31.9 °F 30.44 in Calm     84% 0.00 in 0.0 W/m2 CLR
03:59 36.3 °F 31.9 °F 30.44 in Calm     84% 0.00 in 0.0 W/m2 CLR
04:04 36.2 °F 31.8 °F 30.44 in Calm     84% 0.00 in 0.0 W/m2 CLR
04:09 36.2 °F 31.8 °F 30.44 in Calm     84% 0.00 in 0.0 W/m2 CLR
04:19 36.1 °F 31.7 °F 30.44 in Calm     84% 0.00 in 0.0 W/m2 CLR
04:29 36.1 °F 31.7 °F 30.44 in Calm     84% 0.00 in 0.0 W/m2 CLR
04:39 36.0 °F 31.6 °F 30.44 in Calm     84% 0.00 in 0.0 W/m2 CLR
04:49 35.9 °F 31.8 °F 30.44 in Calm     85% 0.00 in 0.0 W/m2 CLR
04:59 35.7 °F 31.7 °F 30.44 in Calm     85% 0.00 in 0.0 W/m2 CLR
05:04 35.7 °F 31.6 °F 30.44 in Calm     85% 0.00 in 0.0 W/m2 CLR
05:09 35.6 °F 31.5 °F 30.44 in Calm     85% 0.00 in 0.0 W/m2 CLR
05:19 35.5 °F 31.5 °F 30.44 in Calm     85% 0.00 in 0.0 W/m2 CLR
05:29 35.5 °F 31.7 °F 30.44 in Calm     86% 0.00 in 0.0 W/m2 CLR
05:39 35.4 °F 31.3 °F 30.44 in Calm     85% 0.00 in 0.0 W/m2 CLR
05:49 35.3 °F 31.2 °F 30.44 in Calm     85% 0.00 in 0.0 W/m2 CLR
05:59 35.2 °F 31.1 °F 30.45 in Calm     85% 0.00 in 0.0 W/m2 CLR
06:04 35.1 °F 31.0 °F 30.45 in Calm     85% 0.00 in 0.0 W/m2 CLR
06:09 35.1 °F 31.0 °F 30.45 in Calm     85% 0.00 in 0.0 W/m2 CLR
06:19 35.0 °F 31.2 °F 30.45 in Calm     86% 0.00 in 0.0 W/m2 CLR
06:29 34.9 °F 31.2 °F 30.45 in Calm     86% 0.00 in 0.0 W/m2 CLR
06:39 34.8 °F 31.1 °F 30.45 in Calm   1.0 mph 86% 0.00 in 0.0 W/m2 CLR
06:49 34.7 °F 30.9 °F 30.46 in Calm     86% 0.00 in 0.0 W/m2 CLR
06:59 34.6 °F 30.9 °F 30.46 in Calm   1.0 mph 86% 0.00 in 10.8 W/m2 CLR
07:04 34.6 °F 30.8 °F 30.46 in Calm     86% 0.00 in 13.2 W/m2 CLR
07:09 34.6 °F 31.1 °F 30.47 in Calm     87% 0.00 in 16.8 W/m2 CLR
07:19 34.7 °F 31.2 °F 30.47 in Calm   1.0 mph 87% 0.00 in 25.2 W/m2 CLR
07:29 34.7 °F 31.2 °F 30.48 in Calm     87% 0.00 in 27.6 W/m2 CLR
07:39 34.9 °F 31.4 °F 30.48 in Calm     87% 0.00 in 31.2 W/m2 CLR
07:49 35.1 °F 31.9 °F 30.49 in Calm   2.0 mph 88% 0.00 in 38.4 W/m2 CLR
07:59 35.7 °F 32.4 °F 30.49 in Calm   2.0 mph 88% 0.00 in 42.0 W/m2 CLR
08:04 36.1 °F 32.6 °F 30.49 in ESE 1.0 mph 5.0 mph 87% 0.00 in 46.8 W/m2 CLR
08:09 36.5 °F 32.4 °F 30.49 in ENE 1.0 mph 3.0 mph 85% 0.00 in 48.0 W/m2 CLR
08:19 37.4 °F 32.7 °F 30.49 in East 1.0 mph 5.0 mph 83% 0.00 in 58.8 W/m2 CLR
08:29 38.1 °F 32.8 °F 30.49 in ENE 1.0 mph 3.0 mph 81% 0.00 in 135.6 W/m2 CLR
08:39 38.7 °F 32.7 °F 30.50 in ESE 1.0 mph 3.0 mph 79% 0.00 in 160.8 W/m2 CLR
08:49 39.3 °F 33.0 °F 30.50 in East 1.0 mph 2.0 mph 78% 0.00 in 136.8 W/m2 CLR
08:59 39.8 °F 33.2 °F 30.50 in East 1.0 mph 5.0 mph 77% 0.00 in 117.6 W/m2 CLR
09:04 40.2 °F 32.9 °F 30.50 in East 1.0 mph 5.0 mph 75% 0.00 in 156.0 W/m2 CLR
09:09 40.6 °F 33.6 °F 30.50 in ENE 2.0 mph 4.0 mph 76% 0.00 in 162.0 W/m2 CLR
09:19 41.4 °F 34.1 °F 30.50 in East 1.0 mph 3.0 mph 75% 0.00 in 194.4 W/m2 CLR
09:29 42.5 °F 34.1 °F 30.50 in East 2.0 mph 6.0 mph 72% 0.00 in 331.2 W/m2 CLR
09:39 43.7 °F 34.6 °F 30.51 in ENE 2.0 mph 5.0 mph 70% 0.00 in 562.8 W/m2 CLR
09:49 44.9 °F 34.9 °F 30.51 in NE 1.0 mph 4.0 mph 68% 0.00 in 657.6 W/m2 CLR
09:59 46.8 °F 35.2 °F 30.51 in ENE 2.0 mph 8.0 mph 64% 0.00 in 506.4 W/m2 CLR
10:04 46.5 °F 33.8 °F 30.51 in East 2.0 mph 8.0 mph 61% 0.00 in 392.4 W/m2 CLR
10:09 46.6 °F 33.9 °F 30.51 in East 2.0 mph 4.0 mph 61% 0.00 in 518.4 W/m2 CLR
10:19 47.8 °F 34.6 °F 30.52 in NE 2.0 mph 5.0 mph 60% 0.00 in 604.8 W/m2 CLR
10:29 48.8 °F 33.7 °F 30.51 in ESE 1.0 mph 7.0 mph 56% 0.00 in 768.0 W/m2 CLR
10:39 50.0 °F 34.0 °F 30.51 in East 2.0 mph 7.0 mph 54% 0.00 in 804.0 W/m2 CLR
10:49 50.9 °F 32.9 °F 30.51 in ENE 1.0 mph 10.0 mph 50% 0.00 in 807.6 W/m2 CLR
10:59 52.0 °F 32.9 °F 30.51 in East 3.0 mph 7.0 mph 48% 0.00 in 924.0 W/m2 CLR
11:04 52.6 °F 33.4 °F 30.51 in East 3.0 mph 12.0 mph 48% 0.00 in 926.4 W/m2 CLR
11:09 53.2 °F 34.5 °F 30.51 in East 1.0 mph 4.0 mph 49% 0.00 in 930.0 W/m2 CLR
11:19 54.0 °F 32.0 °F 30.51 in ENE 2.0 mph 7.0 mph 43% 0.00 in 892.8 W/m2 CLR
11:29 54.8 °F 34.4 °F 30.50 in NE 3.0 mph 7.0 mph 46% 0.00 in 930.0 W/m2 CLR
11:39 55.9 °F 33.1 °F 30.50 in Calm   3.0 mph 42% 0.00 in 962.4 W/m2 CLR
11:49 54.9 °F 33.4 °F 30.50 in East 1.0 mph 6.0 mph 44% 0.00 in 1016.4 W/m2 CLR
11:59 55.9 °F 34.3 °F 30.50 in NE 1.0 mph 6.0 mph 44% 0.00 in 946.8 W/m2 CLR
12:04 55.7 °F 33.5 °F 30.49 in NE 1.0 mph 7.0 mph 43% 0.00 in 662.4 W/m2 CLR
12:09 55.9 °F 34.3 °F 30.49 in NE 2.0 mph 6.0 mph 44% 0.00 in 902.4 W/m2 CLR
12:19 57.2 °F 34.3 °F 30.49 in ENE 3.0 mph 8.0 mph 42% 0.00 in 1075.2 W/m2 CLR
Mint Hill, North Carolina, USA
Compliments of Weather Underground